SCP
-0 -0 0 -0 -0 -0 -0 -0 -0 -0 0 -0 -0 0 0 -0 -0 -0 -0 -0 0 0 -0 -0 -0 -0 0 0 0 0 0 -0 0 0 0 0 -0 -0 -0 0 -0 0 0
-0 -0 0 -0 -0 -0 -0 -0 -0 -0 0 0 0 -0 -0 -0 -0 -0 0 -0 -0 -0 -0 0 0 -0 -0 0 0 -0 0 -0 0 0 0 0 0 0 -0 -0 -0 0 -0
-0 -0 0 0 0 0 -0 -0 -0 -0 -0 -0 -0 0 0 0 -0 -0 -0 -0 -0 -0 -0 -0 -0 -0 0 0 -0 0 0 0 0 -0 -0 0 0 0 0 0 0 0 0
-0 -0 0 0 0 0 0 -0 -0 -0 -0 -0 -0 -0 0 -0 0 0 0 0 -0 -0 -0 -0 -0 -0 0 -0 -0 -0 0 -0 0 0 -0 -0 -0 0 0 0 -0 -0 0
-0 -0 0 0 0 0 0 0 -0 -0 -0 -0 0 0 -0 -0 -0 -0 0 0 -0 -0 -0 -0 -0 -0 0 0 0 0 0 0 0 0 0 -0 -0 -0 0 0 -0 -0 -0
-0 -0 0 0 0 0 0 0 0 -0 -0 0 0 0 0 -0 -0 0 0 0 -0 -0 -0 -0 -0 -0 0 0 0 -0 0 -0 -0 -0 -0 0 -0 -0 0 0 0 0 0
-0 0 0 0 0 -0 -0 0 0 0 0 0 0 -0 0 0 -0 -0 0 0 0 -0 -0 -1 -0 -0 0 0 0 0 -0 -0 0 0 0 -0 0 -0 0 0 0 0 0
0 0 0 0 0 -0 -0 -0 -0 -0 -0 -0 -0 -0 -0 0 0 0 -0 0 -0 0 0 -1 -0 0 0 0 0 0 0 -0 -0 -0 0 -0 0 0 0 0 0 0 0
0 0 0 0 0 0 -0 -0 0 0 0 -0 0 -0 -0 -0 0 -0 0 -0 -0 -0 0 0 -0 -0 0 0 0 -0 -0 0 -0 -0 0 0 0 0 0 0 0 0 0
-0 0 0 0 0 0 0 0 0 0 -0 -0 -0 -0 -1 -0 -0 0 0 0 0 0 0 0 0 -0 0 -0 0 0 0 -0 -0 -0 0 0 0 0 0 0 0 0 0
0 0 0 0 0 0 0 0 0 0 -0 -1 -1 -1 -1 -1 -0 0 0 0 1 0 0 1 0 0 0 0 0 -0 0 -0 0 0 0 0 0 0 0 0 0 0 0
0 0 0 0 0 0 0 0 0 0 0 -0 -0 -1 -1 -1 -1 -1 -0 0 0 0 0 0 1 0 0 0 0 -0 0 0 0 0 0 0 0 0 0 0 1 0 0
0 0 0 0 0 0 0 0 0 -0 -0 -0 -0 -0 -0 -1 -2 -2 -1 -1 -0 -0 -0 -0 0 1 0 0 0 0 -0 -0 0 0 0 1 1 1 0 0 0 0 0
0 0 0 0 0 0 1 1 0 -0 -0 -0 -0 -0 0 0 -0 -0 -1 -1 -1 -1 -0 -1 -1 -0 -0 -0 -0 0 0 0 0 0 0 1 1 1 1 1 1 1 1
0 0 0 0 0 0 1 1 1 0 -0 -0 -1 -1 -0 0 0 -1 -1 -1 -1 -0 -1 -1 -1 -1 -2 -1 -1 -0 0 0 0 0 1 1 1 0 1 1 1 1 2
0 0 0 0 0 0 0 1 2 0 0 -0 -1 -1 -0 -0 -0 -0 -0 -1 -1 -1 -1 -2 -2 -3 -1 -1 -0 -0 0 1 1 1 2 2 1 1 1 0 0 1 3
0 0 0 0 0 0 1 0 1 1 0 0 0 -0 -0 -0 -0 -0 -0 -0 -0 0 -1 -1 -1 -1 -1 0 -0 -0 1 1 2 2 3 4 3 2 3 0 0 0 1
0 0 0 0 0 0 0 0 0 2 1 1 0 1 -0 -0 -0 -0 -0 1 1 1 1 0 0 1 1 2 1 0 1 2 3 3 3 4 3 5 4 5 3 2 2
0 0 0 0 0 0 0 0 0 1 1 1 1 1 1 1 1 0 1 1 2 2 1 1 2 2 3 3 2 0 2 3 4 5 7 8 8 5 3 9 8 4 3
0 0 0 0 0 0 0 0 0 1 2 2 2 2 3 4 3 1 2 3 3 2 2 2 2 3 4 5 2 1 6 5 7 8 5 5 8 8 2 4 8 9 4
0 0 0 0 0 0 0 1 1 2 2 2 2 4 3 3 3 3 3 2 2 1 2 2 4 4 4 7 2 1 4 8 5 7 9 6 2 3 2 2 8 7 3
0 0 0 0 0 0 1 1 2 1 4 3 3 3 3 3 2 3 4 3 3 3 3 4 4 4 5 4 2 0 1 3 9 11 7 6 5 1 0 0 3 3 1
1 -0 0 1 1 1 1 2 1 3 2 2 3 3 3 3 3 3 4 3 3 2 3 4 5 4 4 5 4 3 1 0 9 8 5 2 3 0 0 0 0 0 3
1 1 -0 0 1 1 2 3 2 3 3 3 3 4 4 4 4 3 3 2 3 3 3 3 2 3 3 4 6 1 0 0 3 1 1 0 0 0 0 0 0 2 2
1 2 1 1 1 1 2 1 2 2 2 3 3 3 3 4 5 7 5 3 6 3 3 3 3 3 3 3 3 5 3 3 3 1 0 0 0 0 0 0 0 1 1
0 1 1 2 2 1 3 2 2 2 3 3 3 2 2 4 5 6 2 0 0 0 0 0 6 2 1 2 4 4 2 2 0 0 0 0 0 0 0 0 0 1 0
Wind_Speed_500mb
60 62 61 62 59 58 56 56 55 54 49 45 40 38 36 32 29 28 30 28 23 21 22 14 17 11 6 5 2 3 4 6 6 8 9 7 10 5 8 8 13 7 9
59 63 65 66 65 64 64 62 62 61 61 47 44 39 36 32 29 29 31 31 23 25 22 23 11 23 19 9 7 9 6 4 4 3 11 17 14 13 10 5 5 7 7
62 66 68 71 70 70 69 67 68 66 64 52 45 43 37 36 33 33 33 32 29 27 26 21 17 17 17 19 5 7 10 5 4 17 10 5 25 19 11 10 8 9 4
64 66 70 72 73 74 70 69 71 70 64 64 47 51 46 41 39 35 34 32 33 33 30 30 23 23 15 14 8 12 14 10 7 6 14 10 4 7 15 13 9 6 6
70 71 72 74 76 73 72 71 73 72 65 64 65 53 55 44 34 37 35 41 36 36 35 33 27 24 23 20 22 15 13 12 12 10 10 11 10 10 7 21 20 9 13
66 70 69 68 70 71 71 70 74 75 75 68 68 68 56 54 44 40 38 36 33 37 38 39 37 32 28 24 18 22 19 19 15 13 14 13 14 13 12 12 16 19 21
67 70 72 68 68 72 72 71 76 81 82 81 74 76 74 61 58 50 43 37 35 34 40 38 44 39 38 32 30 30 22 20 19 22 15 16 16 13 15 14 12 11 15
67 70 73 75 76 79 84 83 82 85 83 85 84 78 79 66 61 60 45 42 41 35 35 37 35 46 39 40 37 30 25 24 23 23 23 18 17 16 15 14 14 11 14
69 70 73 77 77 80 86 90 87 91 88 87 86 84 79 79 71 66 64 55 46 40 39 40 38 41 44 42 38 34 35 30 30 26 26 26 18 18 18 16 15 15 17
69 69 74 76 80 82 89 94 96 93 93 92 91 90 88 84 81 72 70 58 57 54 40 48 43 43 48 49 47 39 38 39 35 31 33 29 22 23 22 20 18 17 17
69 70 70 76 83 83 80 87 92 98 98 96 98 96 96 94 87 87 82 74 68 61 57 49 52 50 51 54 53 50 42 46 44 44 43 44 35 27 25 23 22 22 21
62 67 70 71 72 78 79 82 86 89 98 95 95 103 101 98 95 91 89 85 81 79 74 65 67 62 55 59 60 57 50 55 52 53 53 54 46 45 39 31 31 29 28
57 64 67 66 66 72 81 84 85 85 82 85 87 94 99 100 102 98 92 88 86 83 79 76 74 74 66 65 70 70 67 61 61 57 54 55 55 55 50 49 37 39 42
37 41 55 61 64 66 73 81 82 80 82 82 84 90 98 102 97 93 92 90 88 85 83 81 81 78 74 71 74 76 73 69 60 60 61 57 61 62 61 61 55 48 41
11 17 29 36 38 52 63 73 86 81 81 89 92 97 97 95 95 93 89 87 90 92 90 87 87 86 86 79 79 81 78 73 74 72 67 63 69 68 70 64 66 60 62
28 19 24 36 42 50 54 61 73 86 80 83 91 88 88 93 96 97 95 91 91 96 97 95 91 91 91 85 80 78 81 77 76 79 81 79 75 71 72 71 66 67 66
18 21 24 25 38 43 43 50 62 69 82 89 78 87 85 91 93 95 97 102 103 101 104 101 97 95 96 93 91 83 82 79 76 79 77 77 73 80 80 79 79 78 78
32 30 25 26 26 35 39 40 40 58 74 77 88 81 89 91 90 91 95 99 100 104 104 104 101 95 95 93 92 93 93 93 92 83 86 82 81 85 92 89 88 92 95
37 34 35 36 33 28 36 32 37 47 62 81 89 94 86 91 91 96 93 88 88 91 94 92 86 95 94 85 83 86 92 98 99 97 91 92 96 105 104 100 102 99 99
25 25 31 38 43 33 38 37 38 50 67 63 81 85 85 87 92 93 88 82 79 82 69 75 85 85 88 85 80 78 75 82 95 106 111 112 111 102 94 102 101 99 99
37 35 31 28 32 38 46 44 47 58 55 53 59 73 80 86 82 79 78 76 75 64 71 73 74 76 80 86 71 70 84 94 87 105 110 115 110 100 100 94 98 98 80
45 43 44 43 39 36 39 52 58 66 59 56 58 62 69 69 62 75 71 69 68 67 71 68 71 68 76 81 86 88 85 73 87 82 86 88 78 78 76 80 97 101 89
48 44 46 46 42 37 38 52 61 59 61 56 60 60 64 62 62 63 67 61 61 57 54 55 56 56 55 60 70 83 82 85 98 69 71 79 83 93 99 93 84 94 79
48 42 39 44 45 39 40 55 49 49 54 57 56 60 63 63 59 52 50 51 50 50 51 48 49 45 47 50 48 65 70 58 57 66 74 79 87 78 76 79 78 78 85
44 33 28 27 30 29 32 33 38 50 48 48 46 51 50 53 51 48 52 45 42 48 43 40 37 37 41 40 49 58 45 47 48 64 70 76 82 84 85 71 70 67 65
35 30 26 25 24 24 20 25 30 36 41 41 41 41 41 43 45 50 56 56 54 53 49 44 38 38 43 42 35 37 45 40 46 53 64 70 75 68 65 66 56 65 72
Wind_Direction_500mb
193 193 195 196 195 197 198 199 197 201 202 202 207 207 210 215 216 214 212 219 221 230 245 236 234 235 248 229 247 253 30 209 334 135 131 125 112 152 144 137 135 80 147
192 195 195 196 199 199 201 202 201 203 204 207 206 212 213 217 219 219 220 219 226 229 224 223 237 242 264 260 187 220 203 247 198 245 183 152 156 152 151 109 102 123 109
194 195 197 199 200 201 202 205 209 206 211 199 210 210 214 214 222 219 223 228 224 223 222 235 217 234 206 252 186 215 219 251 227 199 258 217 178 164 182 193 154 151 132
197 196 200 201 202 203 204 206 213 212 213 211 206 211 211 214 216 219 221 225 227 220 226 233 229 230 215 234 247 228 216 226 207 224 235 255 149 185 169 180 199 182 200
197 197 199 201 203 203 204 205 212 213 206 216 206 215 214 217 218 216 221 227 229 229 224 225 231 232 216 223 227 218 211 225 205 207 206 215 213 251 126 188 187 189 210
200 199 199 201 203 203 204 205 208 215 212 213 218 206 219 210 216 217 218 222 226 231 231 221 223 234 222 216 237 228 231 198 219 206 208 206 205 218 224 206 195 210 212
193 200 197 197 201 202 203 205 209 217 218 216 221 217 213 221 207 215 220 218 224 228 234 242 223 226 228 210 226 243 222 229 220 219 207 213 222 230 225 235 236 219 207
200 199 200 197 199 200 201 204 208 218 221 221 222 226 222 218 219 216 214 223 221 226 226 239 236 221 220 217 220 226 227 233 230 228 209 212 225 226 226 230 242 229 231
198 197 199 202 200 201 203 205 206 216 222 220 221 224 224 221 217 218 224 217 221 225 226 224 231 217 210 216 221 220 235 217 240 235 230 218 215 223 226 232 237 248 268
196 199 200 201 203 205 206 206 208 212 223 220 222 224 226 225 224 225 224 223 223 220 218 229 224 223 215 218 222 222 222 234 227 224 244 232 221 225 222 224 231 234 248
193 201 201 204 207 207 207 209 210 211 220 226 224 227 229 230 229 229 234 234 232 227 226 219 232 226 221 220 225 222 219 241 236 227 225 241 220 215 229 226 225 229 232
202 198 199 206 206 208 210 212 213 215 217 222 225 227 229 232 233 233 232 235 236 239 239 237 231 240 234 226 228 231 222 221 235 236 230 238 237 229 215 224 225 228 229
207 199 199 198 206 208 209 212 213 217 218 219 221 224 229 232 236 237 236 235 237 240 242 241 241 242 242 238 235 238 236 225 230 239 240 239 241 241 235 230 228 233 227
214 207 203 202 202 208 209 212 216 218 218 218 219 222 225 230 233 236 237 235 236 238 240 240 243 243 244 241 242 240 239 236 230 235 242 241 243 245 245 239 234 225 230
211 228 241 230 212 203 211 214 214 217 216 216 218 223 226 229 229 232 234 236 236 237 238 240 240 241 242 242 242 242 238 239 239 236 239 238 247 250 247 244 240 235 234
181 193 208 224 218 220 218 218 216 216 216 217 217 221 222 228 229 229 231 232 233 235 238 241 242 241 241 239 239 243 242 235 239 241 240 242 246 251 249 250 244 246 240
239 248 248 227 219 220 217 219 217 217 216 219 219 218 221 226 229 229 229 232 233 235 240 244 245 245 245 244 243 242 245 244 237 241 240 239 241 249 247 247 245 243 248
265 265 260 227 220 223 220 215 214 219 217 218 217 221 219 224 228 230 230 232 234 238 242 245 246 245 247 247 245 242 244 247 247 241 245 240 243 242 252 249 246 246 244
268 267 252 240 238 234 212 214 211 217 220 219 222 218 220 222 226 233 232 233 235 238 240 240 238 244 246 240 245 244 240 243 246 247 241 244 251 254 252 245 253 250 249
292 297 265 254 252 251 242 238 225 219 228 233 225 221 218 221 231 236 234 238 239 241 235 236 240 241 242 242 237 237 243 245 245 251 250 246 255 255 243 242 246 249 256
294 287 286 279 270 259 253 252 231 224 243 228 223 221 223 223 230 231 232 236 237 228 237 230 236 238 243 240 240 251 245 242 252 245 245 253 251 245 246 242 243 248 252
292 280 272 269 271 268 248 237 228 235 237 230 222 224 226 222 222 226 228 230 232 235 230 234 232 236 237 239 244 246 238 240 247 236 239 244 244 250 246 245 240 243 252
299 285 269 267 271 270 246 237 239 233 233 231 225 221 221 223 209 226 222 221 225 221 229 229 234 233 236 245 245 248 238 259 252 241 249 257 254 250 249 252 240 241 247
296 285 271 262 262 263 248 247 233 227 229 228 228 217 214 217 215 214 217 216 220 224 224 229 231 234 235 235 239 251 256 254 253 251 252 250 251 251 253 248 242 243 239
298 281 268 261 258 250 248 246 240 225 225 217 213 209 209 213 211 202 212 217 216 220 223 225 230 235 234 241 241 246 260 269 270 259 254 255 255 250 249 249 234 232 242
290 283 273 256 252 244 233 237 226 216 206 204 204 203 199 204 198 204 211 205 208 214 219 217 213 220 225 231 241 248 261 262 270 267 259 257 259 256 243 228 231 230 227
Wind_Speed_850mb
60 62 61 62 59 58 56 56 55 54 49 45 40 38 36 32 29 28 30 28 23 21 22 14 17 11 6 5 2 3 4 6 6 8 9 7 10 5 8 8 13 7 9
59 63 65 66 65 64 64 62 62 61 61 47 44 39 36 32 29 29 31 31 23 25 22 23 11 23 19 9 7 9 6 4 4 3 11 17 14 13 10 5 5 7 7
62 66 68 71 70 70 69 67 68 66 64 52 45 43 37 36 33 33 33 32 29 27 26 21 17 17 17 19 5 7 10 5 4 17 10 5 25 19 11 10 8 9 4
64 66 70 72 73 74 70 69 71 70 64 64 47 51 46 41 39 35 34 32 33 33 30 30 23 23 15 14 8 12 14 10 7 6 14 10 4 7 15 13 9 6 6
70 71 72 74 76 73 72 71 73 72 65 64 65 53 55 44 34 37 35 41 36 36 35 33 27 24 23 20 22 15 13 12 12 10 10 11 10 10 7 21 20 9 13
66 70 69 68 70 71 71 70 74 75 75 68 68 68 56 54 44 40 38 36 33 37 38 39 37 32 28 24 18 22 19 19 15 13 14 13 14 13 12 12 16 19 21
67 70 72 68 68 72 72 71 76 81 82 81 74 76 74 61 58 50 43 37 35 34 40 38 44 39 38 32 30 30 22 20 19 22 15 16 16 13 15 14 12 11 15
67 70 73 75 76 79 84 83 82 85 83 85 84 78 79 66 61 60 45 42 41 35 35 37 35 46 39 40 37 30 25 24 23 23 23 18 17 16 15 14 14 11 14
69 70 73 77 77 80 86 90 87 91 88 87 86 84 79 79 71 66 64 55 46 40 39 40 38 41 44 42 38 34 35 30 30 26 26 26 18 18 18 16 15 15 17
69 69 74 76 80 82 89 94 96 93 93 92 91 90 88 84 81 72 70 58 57 54 40 48 43 43 48 49 47 39 38 39 35 31 33 29 22 23 22 20 18 17 17
69 70 70 76 83 83 80 87 92 98 98 96 98 96 96 94 87 87 82 74 68 61 57 49 52 50 51 54 53 50 42 46 44 44 43 44 35 27 25 23 22 22 21
62 67 70 71 72 78 79 82 86 89 98 95 95 103 101 98 95 91 89 85 81 79 74 65 67 62 55 59 60 57 50 55 52 53 53 54 46 45 39 31 31 29 28
57 64 67 66 66 72 81 84 85 85 82 85 87 94 99 100 102 98 92 88 86 83 79 76 74 74 66 65 70 70 67 61 61 57 54 55 55 55 50 49 37 39 42
37 41 55 61 64 66 73 81 82 80 82 82 84 90 98 102 97 93 92 90 88 85 83 81 81 78 74 71 74 76 73 69 60 60 61 57 61 62 61 61 55 48 41
11 17 29 36 38 52 63 73 86 81 81 89 92 97 97 95 95 93 89 87 90 92 90 87 87 86 86 79 79 81 78 73 74 72 67 63 69 68 70 64 66 60 62
28 19 24 36 42 50 54 61 73 86 80 83 91 88 88 93 96 97 95 91 91 96 97 95 91 91 91 85 80 78 81 77 76 79 81 79 75 71 72 71 66 67 66
18 21 24 25 38 43 43 50 62 69 82 89 78 87 85 91 93 95 97 102 103 101 104 101 97 95 96 93 91 83 82 79 76 79 77 77 73 80 80 79 79 78 78
32 30 25 26 26 35 39 40 40 58 74 77 88 81 89 91 90 91 95 99 100 104 104 104 101 95 95 93 92 93 93 93 92 83 86 82 81 85 92 89 88 92 95
37 34 35 36 33 28 36 32 37 47 62 81 89 94 86 91 91 96 93 88 88 91 94 92 86 95 94 85 83 86 92 98 99 97 91 92 96 105 104 100 102 99 99
25 25 31 38 43 33 38 37 38 50 67 63 81 85 85 87 92 93 88 82 79 82 69 75 85 85 88 85 80 78 75 82 95 106 111 112 111 102 94 102 101 99 99
37 35 31 28 32 38 46 44 47 58 55 53 59 73 80 86 82 79 78 76 75 64 71 73 74 76 80 86 71 70 84 94 87 105 110 115 110 100 100 94 98 98 80
45 43 44 43 39 36 39 52 58 66 59 56 58 62 69 69 62 75 71 69 68 67 71 68 71 68 76 81 86 88 85 73 87 82 86 88 78 78 76 80 97 101 89
48 44 46 46 42 37 38 52 61 59 61 56 60 60 64 62 62 63 67 61 61 57 54 55 56 56 55 60 70 83 82 85 98 69 71 79 83 93 99 93 84 94 79
48 42 39 44 45 39 40 55 49 49 54 57 56 60 63 63 59 52 50 51 50 50 51 48 49 45 47 50 48 65 70 58 57 66 74 79 87 78 76 79 78 78 85
44 33 28 27 30 29 32 33 38 50 48 48 46 51 50 53 51 48 52 45 42 48 43 40 37 37 41 40 49 58 45 47 48 64 70 76 82 84 85 71 70 67 65
35 30 26 25 24 24 20 25 30 36 41 41 41 41 41 43 45 50 56 56 54 53 49 44 38 38 43 42 35 37 45 40 46 53 64 70 75 68 65 66 56 65 72
Wind_Direction_850mb
193 193 195 196 195 197 198 199 197 201 202 202 207 207 210 215 216 214 212 219 221 230 245 236 234 235 248 229 247 253 30 209 334 135 131 125 112 152 144 137 135 80 147
192 195 195 196 199 199 201 202 201 203 204 207 206 212 213 217 219 219 220 219 226 229 224 223 237 242 264 260 187 220 203 247 198 245 183 152 156 152 151 109 102 123 109
194 195 197 199 200 201 202 205 209 206 211 199 210 210 214 214 222 219 223 228 224 223 222 235 217 234 206 252 186 215 219 251 227 199 258 217 178 164 182 193 154 151 132
197 196 200 201 202 203 204 206 213 212 213 211 206 211 211 214 216 219 221 225 227 220 226 233 229 230 215 234 247 228 216 226 207 224 235 255 149 185 169 180 199 182 200
197 197 199 201 203 203 204 205 212 213 206 216 206 215 214 217 218 216 221 227 229 229 224 225 231 232 216 223 227 218 211 225 205 207 206 215 213 251 126 188 187 189 210
200 199 199 201 203 203 204 205 208 215 212 213 218 206 219 210 216 217 218 222 226 231 231 221 223 234 222 216 237 228 231 198 219 206 208 206 205 218 224 206 195 210 212
193 200 197 197 201 202 203 205 209 217 218 216 221 217 213 221 207 215 220 218 224 228 234 242 223 226 228 210 226 243 222 229 220 219 207 213 222 230 225 235 236 219 207
200 199 200 197 199 200 201 204 208 218 221 221 222 226 222 218 219 216 214 223 221 226 226 239 236 221 220 217 220 226 227 233 230 228 209 212 225 226 226 230 242 229 231
198 197 199 202 200 201 203 205 206 216 222 220 221 224 224 221 217 218 224 217 221 225 226 224 231 217 210 216 221 220 235 217 240 235 230 218 215 223 226 232 237 248 268
196 199 200 201 203 205 206 206 208 212 223 220 222 224 226 225 224 225 224 223 223 220 218 229 224 223 215 218 222 222 222 234 227 224 244 232 221 225 222 224 231 234 248
193 201 201 204 207 207 207 209 210 211 220 226 224 227 229 230 229 229 234 234 232 227 226 219 232 226 221 220 225 222 219 241 236 227 225 241 220 215 229 226 225 229 232
202 198 199 206 206 208 210 212 213 215 217 222 225 227 229 232 233 233 232 235 236 239 239 237 231 240 234 226 228 231 222 221 235 236 230 238 237 229 215 224 225 228 229
207 199 199 198 206 208 209 212 213 217 218 219 221 224 229 232 236 237 236 235 237 240 242 241 241 242 242 238 235 238 236 225 230 239 240 239 241 241 235 230 228 233 227
214 207 203 202 202 208 209 212 216 218 218 218 219 222 225 230 233 236 237 235 236 238 240 240 243 243 244 241 242 240 239 236 230 235 242 241 243 245 245 239 234 225 230
211 228 241 230 212 203 211 214 214 217 216 216 218 223 226 229 229 232 234 236 236 237 238 240 240 241 242 242 242 242 238 239 239 236 239 238 247 250 247 244 240 235 234
181 193 208 224 218 220 218 218 216 216 216 217 217 221 222 228 229 229 231 232 233 235 238 241 242 241 241 239 239 243 242 235 239 241 240 242 246 251 249 250 244 246 240
239 248 248 227 219 220 217 219 217 217 216 219 219 218 221 226 229 229 229 232 233 235 240 244 245 245 245 244 243 242 245 244 237 241 240 239 241 249 247 247 245 243 248
265 265 260 227 220 223 220 215 214 219 217 218 217 221 219 224 228 230 230 232 234 238 242 245 246 245 247 247 245 242 244 247 247 241 245 240 243 242 252 249 246 246 244
268 267 252 240 238 234 212 214 211 217 220 219 222 218 220 222 226 233 232 233 235 238 240 240 238 244 246 240 245 244 240 243 246 247 241 244 251 254 252 245 253 250 249
292 297 265 254 252 251 242 238 225 219 228 233 225 221 218 221 231 236 234 238 239 241 235 236 240 241 242 242 237 237 243 245 245 251 250 246 255 255 243 242 246 249 256
294 287 286 279 270 259 253 252 231 224 243 228 223 221 223 223 230 231 232 236 237 228 237 230 236 238 243 240 240 251 245 242 252 245 245 253 251 245 246 242 243 248 252
292 280 272 269 271 268 248 237 228 235 237 230 222 224 226 222 222 226 228 230 232 235 230 234 232 236 237 239 244 246 238 240 247 236 239 244 244 250 246 245 240 243 252
299 285 269 267 271 270 246 237 239 233 233 231 225 221 221 223 209 226 222 221 225 221 229 229 234 233 236 245 245 248 238 259 252 241 249 257 254 250 249 252 240 241 247
296 285 271 262 262 263 248 247 233 227 229 228 228 217 214 217 215 214 217 216 220 224 224 229 231 234 235 235 239 251 256 254 253 251 252 250 251 251 253 248 242 243 239
298 281 268 261 258 250 248 246 240 225 225 217 213 209 209 213 211 202 212 217 216 220 223 225 230 235 234 241 241 246 260 269 270 259 254 255 255 250 249 249 234 232 242
290 283 273 256 252 244 233 237 226 216 206 204 204 203 199 204 198 204 211 205 208 214 219 217 213 220 225 231 241 248 261 262 270 267 259 257 259 256 243 228 231 230 227